This is the latest recevied weather packets stored in our database for station/object N1HQ. If no packets are shown the sender has not sent any weather packets the latest 10 day(s).
| Time | Temp. | Humidity | Pressure | Rain* | Wind** | Luminosity | Snow |
|---|---|---|---|---|---|---|---|
| 1787856557 | 27.78° C | 88% | 1013.3 hPa | 0 mm | - | - | - |
| 1787856261 | 28.89° C | 86% | 1013.1 hPa | 0 mm | - | - | - |
| 1787856008 | 28.33° C | 86% | 1012.9 hPa | 0 mm | - | - | - |
| 1787855711 | 28.33° C | 89% | 1013 hPa | 0 mm | - | - | - |
| 1787855468 | 28.89° C | 90% | 1013 hPa | 0 mm | - | - | - |
| 1787855183 | 29.44° C | 91% | 1013 hPa | 0 mm | - | - | - |
| 1787854938 | 29.44° C | 90% | 1013 hPa | 0 mm | - | - | - |
| 1787854668 | 30° C | 89% | 1012.9 hPa | 0 mm | - | - | - |
| 1787854403 | 30.56° C | 87% | 1013 hPa | 0 mm | - | - | - |
| 1787854110 | 30.56° C | 84% | 1013 hPa | 0 mm | - | - | - |
| 1787853853 | 30.56° C | 83% | 1013 hPa | 0 mm | - | - | - |
| 1787853558 | 31.11° C | 82% | 1013 hPa | 0 mm | - | - | - |
| 1787853268 | 31.11° C | 84% | 1013 hPa | 0 mm | - | - | - |
| 1787853011 | 31.11° C | 84% | 1013.1 hPa | 0 mm | - | - | - |
| 1787852738 | 31.11° C | 84% | 1013.1 hPa | 0 mm | - | - | - |
| 1787852438 | 31.11° C | 83% | 1013.2 hPa | 0 mm | - | - | - |
| 1787852191 | 31.67° C | 83% | 1013.2 hPa | 0 mm | - | - | - |
| 1787851948 | 31.67° C | 83% | 1013.2 hPa | 0 mm | - | - | - |
| 1787851651 | 31.67° C | 82% | 1013 hPa | 0 mm | - | - | - |
| 1787851388 | 31.67° C | 83% | 1013.1 hPa | 0 mm | - | - | - |
| 1787851138 | 31.67° C | 84% | 1013.1 hPa | 0 mm | - | - | - |
| 1787850871 | 31.67° C | 83% | 1013.1 hPa | 0 mm | - | - | - |
| 1787850618 | 31.67° C | 83% | 1013.1 hPa | 0 mm | - | - | - |
| 1787850328 | 31.11° C | 84% | 1013.1 hPa | 0 mm | - | - | - |
| 1787850082 | 31.11° C | 84% | 1013.2 hPa | 0 mm | - | - | - |
* Rain latest hour (hover to see other rain measurements)
** Current wind speed in m/s (hover to see current wind gust speed)